sat.trackr.live / text

‹ back to catalog

STARLINK-37290

NORAD 68546 · 2026-070E

PAYLOAD ACTIVE UNKNOWN

§ Identity

Operator
Country
US
Launch date
2026-04-02
Launch site
AFETR
Launch vehicle
Mass (kg)
RCS (m²)

Purposes: comms

External: N2YO · Heavens-Above · Gunter

§ Orbital elements

Epoch: 2026-09-20T00:53:42.929952Z

Period
93.85 min
Inclination
53.1587°
Eccentricity
0.0000521
Mean motion
15.34438195 rev/d
Perigee alt
462.2 km
Apogee alt
462.9 km
Semi-major
6,840.7 km
B*
6.7062e-4
RAAN
176.0652°
Arg perigee
91.4624°
Mean anomaly
268.6439°
Rev number
2,636

§ Raw data

STARLINK-372901 68546U 26070E   26263.03730243  .00022377  00000+0  67062-3 0  99992 68546  53.1587 176.0652 0000521  91.4624 268.6439 15.34438195 26369

JSON: /api/v1/satellites/68546 · /tle

For live sub-satellite position, see the globe view (requires WebGL).

§ Visibility from observer

Set your observer location to see the next 7 days of passes ≥ 10°. The values pass through the URL so the page stays shareable.

No JS? Fill the form by hand. The geolocation button needs JavaScript.